INTELSAT 9 (IS-9)

Last updated on Fri Oct 11 2024 00:02:38 GMT+0000 (Coordinated Universal Time)

1 26451U 00043A 24284.48687609 .00000012 00000+0 00000+0 0 9994 2 26451 9.0354 54.6643 0006058 164.6065 36.3245 1.00427673 37986
UTC large
Height (km)
Speed (km/s)
/
Latitude / Longitude
Inclination (degrees)
Orbital Period (minutes)
Azimuth
Elevation
Range (km)
Doppler Factor

Next 0 passes for location: London (51.5072 / 0.1276)

Sorry there are no passes over London.